[[{"header":{"parameterUnit":"m.s-1","parameterCategory":1,"la1":30.2991,"la2":30.254,"lo1":-89.0895,"lo2":-89.0444,"dy":0.0017,"dx":0.0017,"nx":28,"ny":28,"refTime":"2023-08-04T21:00:00:Z","depth":0,"parameterNumber":2,"parameterNumberName":"U-component_of_WINDS"},"data":[0,0,0,0,0,0,0,0,0,0,0,0,0,0,0,0,0,0,0,0,0,0,0,0,0,0,0,0,0,0,0,0,0,0,0,0,0,0,0,0,0,0,0,0,0,0,0,0,0,0,0,0,0,0,0,0,0,0,5.4475,5.4476,0,5.4559,5.456,5.4561,5.447,5.4467,5.4463,5.446,5.4546,5.4552,5.4557,0,0,0,0,0,0,0,0,0,0,0,0,0,5.4233,5.4238,5.4475,5.4476,5.4477,5.4559,5.456,5.4561,5.4471,5.4467,5.4462,5.4458,5.4545,5.4551,5.4558,0,0,0,0,0,0,0,0,0,0,0,0,0,5.433,5.424,5.4474,5.4442,5.4439,5.4559,5.456,5.4561,5.4472,5.4466,5.4461,5.4456,5.4542,5.455,5.4559,5.4714,0,0,5.4584,5.4588,0,0,0,0,0,0,0,0,5.4324,5.4339,5.4445,5.4444,5.4442,5.4499,5.4506,5.4613,5.4473,5.446,5.446,5.4454,5.4535,5.4543,5.4571,5.4718,5.4722,5.4585,5.459,5.4593,5.4596,0,0,0,0,0,0,0,5.4318,5.4335,5.4508,5.4447,5.4445,5.4422,5.443,5.4526,5.4525,5.446,5.4454,5.4465,5.4533,5.4563,5.4572,5.4723,5.4585,5.4592,5.4597,5.46,5.4998,5.5004,0,0,0,0,0,0,5.4315,5.433,5.4505,5.451,5.4369,5.443,5.4439,5.4486,5.4524,5.4525,5.4469,5.4461,5.4551,5.4562,5.4575,5.4756,5.4593,5.4601,5.4606,5.4993,5.5,5.5006,0,0,0,0,0,0,5.431,5.4332,5.4502,5.4418,5.4438,5.444,5.4493,5.449,5.452,5.4531,5.453,5.45,5.4547,5.4563,5.4679,5.4758,5.4605,5.4612,5.4986,5.4995,5.5003,5.5122,0,0,0,0,0,0,5.4304,5.433,5.439,5.442,5.4443,5.4606,5.4498,5.4496,5.4535,5.4524,5.456,5.4561,5.4545,5.4667,5.4687,5.4766,5.4619,5.4979,5.499,5.5,5.5111,5.5133,5.5152,0,0,0,0,0,5.4295,5.4422,5.4394,5.4416,5.4518,5.4611,5.4624,5.4603,5.4541,5.4601,5.4607,5.456,5.4746,5.468,5.4702,5.4785,5.4974,5.4987,5.4999,5.5101,5.5129,5.5152,0,0,0,0,0,0,5.4401,5.4425,5.4395,5.4534,5.4571,5.4595,5.467,5.4633,5.4688,5.4675,5.4647,5.4656,5.4778,5.4793,5.4719,5.4935,5.485,5.4868,5.492,5.4946,5.4967,5.4959,5.4626,0,0,0,0,0,5.4441,5.4515,5.4531,5.4653,5.4673,5.4669,5.4708,5.4688,5.4725,5.4741,5.4756,5.4793,5.4859,5.4904,5.4967,5.5113,5.5118,5.5181,5.5201,5.5218,5.5233,5.5308,5.5335,5.5047,5.5047,5.5047,0,0,5.4524,5.4546,5.4594,5.4675,5.4701,5.4776,5.4682,5.4767,5.4822,5.4754,5.4863,5.4876,5.4915,5.5046,5.5105,5.5063,5.5314,5.5234,5.5248,5.5253,5.5323,5.5351,5.5375,5.5055,5.5054,5.5053,0,0,5.4712,5.4738,5.4839,5.4867,5.4908,5.4903,5.4928,5.4958,5.4963,5.5072,5.5021,5.5086,5.5203,5.5232,5.5262,5.5459,5.5415,5.548,5.5588,5.5661,5.5683,5.5703,5.577,5.5794,5.5495,5.5496,5.5496,0,5.4809,5.4921,5.4897,5.4984,5.502,5.496,5.5062,5.509,5.515,5.5175,5.5127,5.5269,5.5292,5.5427,5.5475,5.5503,5.5527,5.5475,5.5682,5.5702,5.572,5.5783,5.5809,5.5503,5.5502,5.5501,5.5501,0,5.5037,5.5116,5.5193,5.525,5.5295,5.539,5.5378,5.5426,5.5402,5.5402,5.5513,5.5538,5.5602,5.5634,5.5612,5.5765,5.5737,5.5687,5.56,5.5755,5.5814,5.5838,5.5513,5.5511,5.5508,5.5507,0,0,5.5294,5.5335,5.5363,5.5387,5.5426,5.5486,5.5577,5.5639,5.5679,5.5722,5.5795,5.5894,5.5846,5.588,5.5861,5.5926,5.6075,5.5867,5.5867,5.5902,5.6241,5.6276,5.6305,5.6048,5.6053,5.6056,5.6236,0,5.548,5.5637,5.5617,5.5767,5.5837,5.5781,5.5859,5.5891,5.5893,5.5953,5.5955,5.6024,5.5958,5.5978,5.6039,5.6044,5.6143,5.6031,5.6114,5.6117,5.6102,5.6336,5.6375,5.6543,5.626,5.6263,5.6266,0,5.5719,5.5768,5.5925,5.5949,5.5978,5.6049,5.6103,5.6161,5.6195,5.6192,5.6229,5.6198,5.6287,5.62,5.6321,5.6246,5.6278,5.6285,5.6291,5.6296,5.6199,5.6344,5.6597,5.6621,5.6303,5.63,5.6297,0,5.5886,5.5992,5.6098,5.612,5.6153,5.6204,5.622,5.6249,5.6286,5.6333,5.6357,5.6415,5.6445,5.649,5.6474,5.6413,5.6596,5.651,5.6594,5.6594,5.6633,5.663,5.6892,5.666,5.666,5.6659,5.6659,0,5.6094,5.6191,5.6173,5.6238,5.6344,5.6319,5.6425,5.6434,5.646,5.6524,5.648,5.6542,5.6518,5.6578,5.6567,5.6666,5.6681,5.6679,5.6675,5.6682,5.6681,5.67,5.6687,5.6666,5.6664,5.6663,5.6662,0,5.6298,5.629,5.6401,5.6423,5.643,5.6507,5.6525,5.6585,5.6584,5.6666,5.6683,5.6681,5.6749,5.6738,5.6814,5.6805,5.6928,5.6911,5.6916,5.6911,5.6995,5.6986,5.7275,5.731,5.7059,5.7061,5.7063,0,5.643,5.6503,5.6531,5.6571,5.659,5.6656,5.6693,5.6671,5.6711,5.6754,5.6808,5.6872,5.6921,5.7032,5.7036,5.7093,5.7074,5.7172,5.7082,5.7086,5.7071,5.7066,5.7071,5.7189,5.7191,5.7194,5.7196,0,5.6663,5.6655,5.6711,5.6765,5.681,5.6852,5.6889,5.6925,5.6905,5.6953,5.7021,5.7059,5.7135,5.7197,5.725,5.7265,5.7227,5.7224,5.7246,5.7252,5.7251,5.7249,5.6961,5.7217,5.7215,5.7213,5.7212,5.7211,5.6833,5.6893,5.6922,5.6984,5.701,5.7045,5.7101,5.7106,5.7162,5.7221,5.7205,5.7282,5.7311,5.7377,5.7398,5.7456,5.742,5.7453,5.746,5.7468,5.7476,5.7244,5.7466,5.7466,5.7465,5.7465,5.7464,0,5.706,5.7075,5.7134,5.7186,5.7235,5.7195,5.7233,5.7276,5.7343,5.7374,5.7423,5.7499,5.7559,5.7568,5.7624,5.7668,5.7652,5.7684,5.7678,5.7682,5.7507,5.7481,5.7696,5.7696,5.7696,5.7696,5.7696,5.7695,5.7184,5.7284,5.7279,5.7389,5.7403,5.7477,5.7502,5.7533,5.7557,5.7644,5.7693,5.7698,5.7719,5.7776,5.7828,5.7829,5.785,5.7888,5.7882,5.7718,5.7695,5.7672,5.7647,5.7893,5.7894,5.805,5.8052,5.8053]},{"header":{"parameterUnit":"m.s-1","parameterCategory":1,"la1":30.2991,"la2":30.254,"lo1":-89.0895,"lo2":-89.0444,"dy":0.0017,"dx":0.0017,"nx":28,"ny":28,"refTime":"2023-08-04T21:00:00:Z","depth":0,"parameterNumber":3,"parameterNumberName":"V-component_of_WINDS"},"data":[0,0,0,0,0,0,0,0,0,0,0,0,0,0,0,0,0,0,0,0,0,0,0,0,0,0,0,0,0,0,0,0,0,0,0,0,0,0,0,0,0,0,0,0,0,0,0,0,0,0,0,0,0,0,0,0,0,0,3.6668,3.6668,0,3.6743,3.6744,3.6745,3.6735,3.6734,3.6733,3.6732,3.6805,3.6808,3.6812,0,0,0,0,0,0,0,0,0,0,0,0,0,3.6509,3.6512,3.6667,3.6668,3.6669,3.6743,3.6744,3.6745,3.6736,3.6734,3.6733,3.6731,3.6804,3.6808,3.6812,0,0,0,0,0,0,0,0,0,0,0,0,0,3.6581,3.6513,3.6667,3.6674,3.6675,3.6743,3.6744,3.6746,3.6736,3.6734,3.6732,3.673,3.6803,3.6808,3.6812,3.6878,0,0,3.6827,3.6829,0,0,0,0,0,0,0,0,3.6577,3.6586,3.6672,3.6673,3.6675,3.6728,3.6716,3.679,3.6736,3.6713,3.6732,3.6729,3.6781,3.6787,3.6805,3.6882,3.6885,3.6827,3.683,3.6832,3.6833,0,0,0,0,0,0,0,3.6572,3.6583,3.6697,3.6673,3.6675,3.6671,3.6679,3.673,3.6756,3.6714,3.6714,3.6723,3.6781,3.6801,3.6807,3.6886,3.6827,3.6831,3.6834,3.6836,3.7018,3.7019,0,0,0,0,0,0,3.6566,3.6579,3.6695,3.67,3.662,3.6675,3.6684,3.6713,3.6756,3.676,3.6725,3.6723,3.6794,3.6802,3.681,3.6888,3.6832,3.6836,3.6839,3.7016,3.7018,3.702,0,0,0,0,0,0,3.6562,3.6576,3.6692,3.6639,3.6654,3.668,3.6712,3.6715,3.6735,3.6763,3.6768,3.674,3.6793,3.6803,3.6861,3.6891,3.6838,3.6843,3.7013,3.7016,3.7019,3.7047,0,0,0,0,0,0,3.6558,3.6575,3.6602,3.664,3.6657,3.6744,3.6714,3.6718,3.6743,3.6741,3.6779,3.6783,3.6792,3.6854,3.6866,3.6896,3.6846,3.7011,3.7015,3.7018,3.7043,3.705,3.7056,0,0,0,0,0,3.6552,3.6606,3.6603,3.6617,3.6691,3.6745,3.6755,3.6765,3.6746,3.6772,3.679,3.6782,3.6886,3.686,3.6873,3.6905,3.7009,3.7013,3.7018,3.704,3.7049,3.7056,0,0,0,0,0,0,3.6569,3.6611,3.6608,3.6677,3.6708,3.6744,3.6777,3.6774,3.681,3.6806,3.6816,3.6824,3.6883,3.69,3.6871,3.697,3.6944,3.6952,3.6957,3.6965,3.6972,3.6966,3.685,0,0,0,0,0,3.6581,3.6624,3.6657,3.6714,3.673,3.6751,3.6775,3.678,3.6812,3.6825,3.6847,3.6877,3.6916,3.6942,3.698,3.7046,3.7053,3.7074,3.7081,3.7086,3.7092,3.7126,3.7136,3.7035,3.7035,3.7035,0,0,3.6606,3.6634,3.666,3.6718,3.6743,3.6785,3.6762,3.6808,3.6838,3.6831,3.6887,3.6905,3.6939,3.7001,3.7029,3.7017,3.7121,3.7092,3.7096,3.7099,3.7132,3.7141,3.715,3.7038,3.7038,3.7037,0,0,3.6672,3.6698,3.6748,3.6773,3.6811,3.6824,3.6836,3.6873,3.6884,3.6941,3.6936,3.6972,3.7039,3.7063,3.7084,3.7158,3.7152,3.717,3.7204,3.7237,3.7245,3.7252,3.7277,3.7286,3.7176,3.7176,3.7176,0,3.6697,3.6762,3.6773,3.6819,3.6844,3.6841,3.6889,3.6913,3.6961,3.6977,3.6963,3.7047,3.707,3.7137,3.7154,3.7172,3.7184,3.7166,3.7244,3.7251,3.7257,3.7281,3.7291,3.7178,3.7178,3.7178,3.7178,0,3.679,3.6835,3.687,3.6917,3.6946,3.6994,3.701,3.7037,3.704,3.7054,3.711,3.7138,3.718,3.7196,3.7199,3.7263,3.7254,3.7242,3.7216,3.7269,3.7291,3.73,3.7181,3.718,3.718,3.7179,0,0,3.687,3.6922,3.6935,3.6955,3.6996,3.703,3.7076,3.7119,3.7141,3.7174,3.7212,3.7269,3.7257,3.7281,3.7286,3.7316,3.737,3.73,3.73,3.7311,3.744,3.7448,3.7459,3.7366,3.7368,3.737,3.7437,0,3.6939,3.7022,3.7033,3.7106,3.7146,3.7143,3.7183,3.7211,3.7225,3.726,3.7275,3.7315,3.7298,3.7312,3.7341,3.7357,3.7396,3.7353,3.74,3.7401,3.7391,3.7471,3.748,3.7542,3.7446,3.7447,3.7449,0,3.7031,3.7067,3.7144,3.7178,3.7196,3.7232,3.727,3.7305,3.7336,3.7344,3.737,3.7371,3.7417,3.7389,3.7451,3.7422,3.7441,3.7452,3.7455,3.7459,3.7428,3.7476,3.7563,3.7571,3.7463,3.7462,3.7461,0,3.7079,3.7147,3.7201,3.7219,3.7261,3.7286,3.7304,3.7334,3.7358,3.7392,3.7407,3.7445,3.7466,3.7494,3.7505,3.7484,3.7565,3.7539,3.7572,3.7571,3.7588,3.7587,3.7678,3.7603,3.7603,3.7603,3.7602,0,3.7155,3.7202,3.7224,3.7257,3.7309,3.732,3.737,3.7387,3.7414,3.7449,3.7448,3.7481,3.7493,3.7527,3.7535,3.7584,3.7594,3.76,3.7601,3.76,3.7599,3.7612,3.7607,3.7605,3.7605,3.7604,3.7604,0,3.7217,3.7234,3.7293,3.7328,3.7337,3.7374,3.7402,3.7434,3.7447,3.7492,3.7503,3.7524,3.7564,3.7577,3.7625,3.7631,3.7687,3.7686,3.7677,3.7677,3.7708,3.7704,3.781,3.7824,3.7741,3.7742,3.7742,0,3.7263,3.73,3.7338,3.7362,3.7382,3.7421,3.7445,3.7457,3.7483,3.752,3.7547,3.7587,3.7619,3.7683,3.7702,3.7738,3.7736,3.7771,3.7742,3.7738,3.7735,3.7732,3.7735,3.7776,3.7777,3.7777,3.7778,0,3.7344,3.735,3.7387,3.7426,3.7456,3.7487,3.7517,3.7537,3.7552,3.7581,3.7622,3.7648,3.7697,3.7736,3.7773,3.779,3.7786,3.7787,3.7796,3.7794,3.7787,3.779,3.7691,3.7784,3.7784,3.7783,3.7783,3.7783,3.7399,3.743,3.7462,3.7502,3.7526,3.7554,3.7585,3.7602,3.7638,3.7679,3.7684,3.7728,3.7756,3.7806,3.7825,3.7858,3.7848,3.7862,3.7865,3.7868,3.787,3.7783,3.7865,3.7865,3.7865,3.7865,3.7864,0,3.7477,3.7498,3.7535,3.7577,3.7608,3.7603,3.7636,3.7662,3.7701,3.7729,3.7761,3.7808,3.7846,3.7867,3.7904,3.7926,3.7925,3.7936,3.7933,3.7937,3.7877,3.7865,3.7936,3.7936,3.7936,3.7936,3.7936,3.7936,3.7522,3.7575,3.7584,3.7648,3.7667,3.7712,3.773,3.7755,3.7777,3.783,3.7862,3.7876,3.79,3.7939,3.7972,3.7977,3.799,3.8002,3.8005,3.7949,3.7941,3.7934,3.7923,3.8005,3.8005,3.8062,3.8063,3.8063]}]]